Showing default

SKY MEXICO-1, 40664

Orbit data source: Space-Track

SKY MEXICO-1, 40664 is a Mexican payload satellite in GEO that was launched on Wed, 27 May 2015 UTC via an ARIANE 5ECA launch vehicle from the French Guiana (FRGUI). Payload-class satellites include a variety of spacecraft equipped with specific instruments for various scientific and technological missions. These include communications satellites like Starlink; space stations such as the ISS; scientific satellites like the Hubble; Earth observation satellites from companies like Planet Labs, Umbra, and HawkEye 360; GPS; miniature CubeSats for education and research; and military/defense satellites.

Loading next visibility...
Identifier
40664, 2015-026B
Orbit
GEO
Country
Flag of MXMX / MEX
Related business
Manufacturer
OATK SSG
Mission
Operational Commercial Communications
Bus & Motor
GEOSTAR-2, IHI BT-4
Mass
3,182 kg wet, 1,260 kg dry
Launch date (UTC)
2015-05-27 (11 years ago)
Launch vehicle
ARIANE 5ECA
Launch site
French Guiana (FRGUI)
Object type
Payload
Rocket body
Debris
Shape & HBR
Box + 2 Pan, 11.2 m
Radar Cross Section
28.221 m², Large (>1 m²)

Expand to show TLE details & history
Last TLE update: 9 hours ago

TLE from 9 hours ago
0 SKY MEXICO-1
1 40664U 15026B   26015.14326360 -.00000215  00000-0  00000+0 0  9991
2 40664   0.0145 349.6457 0002419 327.7115 130.0387  1.00270698 38929
Epoch: 2026-01-15T03:26Z
TLE epoch observation values (Epoch: 2026-01-15T03:26:17.975Z)
Latitude
0.0314°
Longitude
-78.746°
Altitude
35,793.001 km
Speed
3.074 km/s
True Right ascension
05h 49m 43s
True Declination
0° 01' 53"
Sunlit
Object was in daylight at epoch
Visualization orbit readout
Latitude
Unknown
Longitude
Unknown
Altitude
Unknown
Speed
Unknown
Apparent Right ascension
Unknown
Apparent Declination
Unknown
Sunlit
N/A
Visualization observer readout
Local Sidereal Time
12:47:38
Azimuth
Unknown
Elevation
Unknown
Doppler factor
Unknown
Orbital elements
Apogee altitude
35,798.17 km
Perigee altitude
35,777.77 km
Semi-major axis
42,166.107 km
Eccentricity
0.00024
Inclination
0.0145°
RAAN
349.6457°
Arg. of periapsis
327.7115°
True anomaly
130.05992°
Mean anomaly
130.0387°
Eccentric anomaly
130.04931°
Mean motion
0.25067 °/min
Orbital period
1,436.17 mins
BSTAR
0
Loading maneuver chart data...
Computing Atmospheric mass density...
Loading historical data...
Loading historical data...
Loading historical data...
Loading historical data...
Loading historical data...
Loading historical data...
Loading historical data...
Other satellites on launch #26 in the year 2015 (2015-05-27 UTC)

Documentation

Showing up to 5 results
|